Главная страница
METAR-TAF:

METAR-TAF

Аэропорты :

Mora–Siljan

Мура, Швеция

широта: 60-57-31N, долгота: 14-30-40E, высота над уровнем моря: 193 м

Текущие метеонаблюдения

Эта сводка был подготовлена 39 минут назад, в 13:20 UTC
Ветер 11 Узел от южный-юго-западный, изменяющийся между южный и юго-западный
Температура 8°C
Влажность 31%
Давление 1025 hPa
Видимость 10 км и более

METAR: ESKM 221320Z AUTO 20011KT 170V230 9999 BKN098/// BKN120/// 08/M08 Q1025

Время: 14:59 (13:59 UTC)


TAF: отсутствует

Метеонаблюдения и прогнозы для более 4000 аэропортов (сводки METAR и TAF).

Имеющиеся станции представлены на карте желтыми и красными точками.

Чтобы увидеть название станции, наведите на нее мышь.

Затем щелкните, чтобы увидеть метеонаблюдения и метеопрогнозы.

Управление картой: чтобы увеличить масштаб, щелкните зеленые кнопки с черным крестиком; чтобы уменьшить масштаб, щелкните зеленую кнопку с тире; для просмотра соседних карт щелкайте зеленые стрелки.


METAR-TAF: